Seattle, WA
on Saturday, February 16, 2013

Saturday
Previous Day Next Day
Daily Summary
 ActualAverageRecord
Temperature
Mean Temperature °F 43°F  
Max Temperature 52°F 50°F 58°F (1997)
Min Temperature 39°F 37°F 13°F (1956)
Degree Days
Heating Degree Days 19 22  
Month to date heating degree days 316 352  
Since 1 July heating degree days 2890 3001  
Cooling Degree Days 0 0  
Month to date cooling degree days 0 0  
Year to date cooling degree days 0 0  
Moisture
Dew Point 39°F   
Average Humidity 76    
Maximum Humidity 92    
Minimum Humidity 59    
Precipitation
Precipitation T in 0.12 in 1.83 in (1949)
Month to date precipitation 0.51 2.06  
Year to date precipitation 4.67 7.63  
Snow
Snow 0.00 in in 3.50 in (1990)
Month to date snowfall 0.0  
Since 1 July snowfall 0.6  
Snow Depth 0.00 in   
Wind
Wind Speed 13 mph   
Max Wind Speed 24 mph   
Max Gust Speed 33 mph   
Visibility 8 miles   
Events Fog , Rain   

Key: T is trace of precipitation, MM is missing value
Source: NWS Daily Summary
Time(PST)TemperatureDew PointHumidity Pressure Visibility Wind DirectionWind SpeedGust SpeedPrecipitationEvents Conditions
12:53 AM 41.0°F 37.9°F 89% 30.20 in 7.0 miles Calm Calm - N/A   Partly Cloudy
1:53 AM 39.9°F 37.9°F 93% 30.19 in 6.0 miles SSE 4.6 mph - N/A   Partly Cloudy
2:23 AM 41.0°F 39.2°F 93% 30.17 in 2.0 miles SE 4.6 mph - N/A   Overcast
2:36 AM 41.0°F 39.2°F 93% 30.17 in 1.8 miles SSE 6.9 mph - N/A   Overcast
2:48 AM 41.0°F 39.2°F 93% 30.17 in 0.5 miles SSE 6.9 mph - N/A Fog Fog
2:53 AM 42.1°F 39.0°F 89% 30.19 in 0.5 miles SE 9.2 mph - N/A Fog Fog
3:06 AM 41.0°F 39.2°F 93% 30.16 in 1.0 miles ESE 6.9 mph - N/A   Mostly Cloudy
3:14 AM 41.0°F 39.2°F 93% 30.16 in 1.5 miles ESE 10.4 mph - N/A   Mostly Cloudy
3:22 AM 42.8°F 39.2°F 87% 30.16 in 2.5 miles SSE 10.4 mph 18.4 mph N/A   Mostly Cloudy
3:31 AM 41.0°F 39.2°F 93% 30.16 in 3.0 miles SSE 8.1 mph 18.4 mph N/A   Mostly Cloudy
3:53 AM 43.0°F 39.9°F 89% 30.18 in 5.0 miles South 9.2 mph - N/A   Mostly Cloudy
4:14 AM 44.6°F 41.0°F 87% 30.15 in 6.0 miles SSW 13.8 mph - N/A   Mostly Cloudy
4:24 AM 44.6°F 41.0°F 87% 30.15 in 6.0 miles SSW 12.7 mph - N/A   Overcast
4:53 AM 45.0°F 42.1°F 90% 30.18 in 6.0 miles South 9.2 mph - N/A   Overcast
5:53 AM 46.0°F 42.1°F 86% 30.17 in 10.0 miles South 12.7 mph - N/A   Mostly Cloudy
6:53 AM 46.0°F 42.1°F 86% 30.18 in 10.0 miles SSW 12.7 mph - N/A   Overcast
7:53 AM 46.0°F 42.1°F 86% 30.19 in 10.0 miles SSW 13.8 mph - N/A   Overcast
8:53 AM 46.9°F 41.0°F 80% 30.20 in 10.0 miles SSW 15.0 mph - N/A   Overcast
9:53 AM 46.9°F 42.1°F 83% 30.20 in 10.0 miles South 15.0 mph - N/A   Overcast
10:11 AM 48.2°F 42.8°F 82% 30.17 in 10.0 miles South 17.3 mph 23.0 mph N/A   Mostly Cloudy
10:53 AM 48.0°F 39.9°F 74% 30.20 in 10.0 miles SSW 17.3 mph 23.0 mph N/A   Overcast
11:53 AM 51.8°F 39.2°F 62% 30.16 in 10.0 miles SSW 19.6 mph 26.5 mph N/A   Scattered Clouds
12:53 PM 52.0°F 39.9°F 63% 30.17 in 10.0 miles SSW 19.6 mph 24.2 mph N/A   Mostly Cloudy
1:28 PM 51.8°F 35.6°F 54% 30.12 in 10.0 miles SSW 21.9 mph 29.9 mph N/A   Scattered Clouds
1:53 PM 51.1°F 37.9°F 61% 30.16 in 10.0 miles SSW 17.3 mph 28.8 mph N/A   Mostly Cloudy
2:53 PM 52.0°F 37.0°F 57% 30.15 in 10.0 miles SW 20.7 mph 29.9 mph N/A   Mostly Cloudy
3:53 PM 48.9°F 37.9°F 66% 30.16 in 10.0 miles SW 13.8 mph 24.2 mph N/A   Mostly Cloudy
4:53 PM 48.9°F 35.1°F 59% 30.16 in 10.0 miles SW 12.7 mph 21.9 mph N/A   Mostly Cloudy
5:53 PM 46.9°F 36.0°F 66% 30.17 in 10.0 miles SW 13.8 mph - N/A   Mostly Cloudy
6:53 PM 45.0°F 37.0°F 74% 30.18 in 10.0 miles SSW 10.4 mph - N/A   Mostly Cloudy
7:53 PM 45.0°F 37.0°F 74% 30.19 in 10.0 miles SSW 10.4 mph - N/A   Mostly Cloudy
8:53 PM 44.1°F 36.0°F 73% 30.19 in 10.0 miles SSW 11.5 mph - N/A   Overcast
9:53 PM 43.0°F 36.0°F 76% 30.20 in 10.0 miles SSW 12.7 mph - 0.00 in Rain Light Rain
10:53 PM 43.0°F 35.1°F 74% 30.22 in 10.0 miles SSW 11.5 mph - 0.00 in   Overcast
11:53 PM 42.1°F 35.1°F 76% 30.22 in 10.0 miles South 8.1 mph - N/A   Overcast
Moon Phase
Feb. 16 Feb. 17 Feb. 25 Mar. 04 Mar. 11
Sunrise:07:12 AM (PST) Moon Rise:09:58 AM (PST)2/16
Sunset:05:35 PM (PST) Moon Set:12:09 AM (PST)2/16

Copyright © 2014 The Weather Underground, Inc.